Location: Thiviers
(45.4167°N, 0.9167°E)
Time: 14:22:01
(UTC+02:00)

ISS - Visible Passes

Search period start: 21 October 2017 00:00
Search period end: 30 October 2017 23:00
Orbit: 401 x 408 km, 51.6° (Epoch: 22 October)

Date Brightness Start Highest point End Pass type
(mag) Time Alt. Az. Time Alt. Az. Time Alt. Az.
27 Oct -0.4 07:55:33 10° SSE 07:56:34 11° SE 07:57:35 10° ESE visible
29 Oct -1.4 06:45:11 10° SSW 06:47:52 24° SE 06:50:33 10° E visible
30 Oct -0.8 05:53:55 10° SSE 05:55:38 14° SE 05:57:21 10° ESE visible
